Time,TemperatureF,DewpointF,PressureIn,WindDirection,WindDirectionDegrees,WindSpeedMPH,WindSpeedGustMPH,Humidity,HourlyPrecipIn,Conditions,Clouds,dailyrainin,SoftwareType,DateUTC
2013-03-15 00:00:00,24.3,7.9,29.85,NW,311,10.0,10.0,49,0.00,,CLR,0.00,VWS V14.01,2013-03-15 04:00:00,
2013-03-15 00:05:00,24.3,7.9,29.85,West,280,8.0,14.0,49,0.00,,BKN090,0.00,VWS V14.01,2013-03-15 04:05:00,
2013-03-15 00:10:00,24.4,8.0,29.85,NW,319,5.0,10.0,49,0.00,,BKN090,0.00,VWS V14.01,2013-03-15 04:10:00,
2013-03-15 00:15:00,24.3,8.4,29.85,West,279,3.0,10.0,50,0.00,,BKN090,0.00,VWS V14.01,2013-03-15 04:15:00,
2013-03-15 00:20:00,24.3,8.4,29.85,WNW,293,10.0,12.0,50,0.00,,BKN090,0.00,VWS V14.01,2013-03-15 04:20:00,
2013-03-15 00:25:00,24.2,8.7,29.85,WNW,284,2.0,12.0,51,0.00,,BKN090,0.00,VWS V14.01,2013-03-15 04:25:00,
2013-03-15 00:30:00,24.1,9.0,29.85,WNW,293,12.0,12.0,52,0.00,,BKN090,0.00,VWS V14.01,2013-03-15 04:30:00,
2013-03-15 00:35:00,24.0,8.9,29.85,NW,311,3.0,14.0,52,0.00,,BKN090,0.00,VWS V14.01,2013-03-15 04:35:00,
2013-03-15 00:40:00,23.9,8.9,29.85,WNW,292,4.0,8.0,52,0.00,,BKN090,0.00,VWS V14.01,2013-03-15 04:40:00,
2013-03-15 00:45:00,23.8,9.2,29.85,NW,315,5.0,15.0,53,0.00,,BKN090,0.00,VWS V14.01,2013-03-15 04:45:00,
2013-03-15 00:50:00,23.8,9.2,29.85,WNW,285,10.0,16.0,53,0.00,,BKN090,0.00,VWS V14.01,2013-03-15 04:50:00,
2013-03-15 00:55:00,23.7,9.5,29.85,WNW,291,2.0,16.0,54,0.00,,BKN090,0.00,VWS V14.01,2013-03-15 04:55:00,
2013-03-15 01:00:00,23.6,9.4,29.85,NW,316,8.0,8.0,54,0.00,,CLR,0.00,VWS V14.01,2013-03-15 05:00:00,
2013-03-15 01:05:00,23.5,9.7,29.85,WSW,249,2.0,8.0,55,0.00,,CLR,0.00,VWS V14.01,2013-03-15 05:05:00,
2013-03-15 01:10:00,23.4,9.6,29.85,NW,311,1.0,3.0,55,0.00,,CLR,0.00,VWS V14.01,2013-03-15 05:10:00,
2013-03-15 01:15:00,23.3,9.9,29.86,WNW,297,9.0,10.0,56,0.00,,CLR,0.00,VWS V14.01,2013-03-15 05:15:00,
2013-03-15 01:20:00,23.3,9.9,29.86,NNE,27,0.0,4.0,56,0.00,,CLR,0.00,VWS V14.01,2013-03-15 05:20:00,
2013-03-15 01:25:00,23.2,9.8,29.86,NW,307,6.0,10.0,56,0.00,,CLR,0.00,VWS V14.01,2013-03-15 05:25:00,
2013-03-15 01:30:00,23.2,9.8,29.86,West,274,2.0,3.0,56,0.00,,CLR,0.00,VWS V14.01,2013-03-15 05:30:00,
2013-03-15 01:35:00,23.1,10.1,29.86,NW,304,4.0,8.0,57,0.00,,CLR,0.00,VWS V14.01,2013-03-15 05:35:00,
2013-03-15 01:40:00,23.0,10.1,29.86,WNW,300,1.0,5.0,57,0.00,,CLR,0.00,VWS V14.01,2013-03-15 05:40:00,
2013-03-15 01:45:00,22.9,10.3,29.86,West,264,2.0,10.0,58,0.00,,CLR,0.00,VWS V14.01,2013-03-15 05:45:00,
2013-03-15 01:50:00,22.8,10.2,29.86,WNW,295,3.0,4.0,58,0.00,,CLR,0.00,VWS V14.01,2013-03-15 05:50:00,
2013-03-15 01:55:00,22.8,10.2,29.86,NW,316,2.0,9.0,58,0.00,,CLR,0.00,VWS V14.01,2013-03-15 05:55:00,
2013-03-15 02:00:00,22.7,10.5,29.86,NW,323,5.0,5.0,59,0.00,,CLR,0.00,VWS V14.01,2013-03-15 06:00:00,
2013-03-15 02:05:00,22.7,10.5,29.86,NW,306,3.0,9.0,59,0.00,,CLR,0.00,VWS V14.01,2013-03-15 06:05:00,
2013-03-15 02:10:00,22.9,10.7,29.85,NW,313,8.0,9.0,59,0.00,,CLR,0.00,VWS V14.01,2013-03-15 06:10:00,
2013-03-15 02:15:00,22.9,10.7,29.85,NW,307,8.0,11.0,59,0.00,,CLR,0.00,VWS V14.01,2013-03-15 06:15:00,
2013-03-15 02:20:00,22.9,11.1,29.85,NW,308,8.0,9.0,60,0.00,,CLR,0.00,VWS V14.01,2013-03-15 06:20:00,
2013-03-15 02:25:00,22.9,11.5,29.85,NW,326,7.0,11.0,61,0.00,,CLR,0.00,VWS V14.01,2013-03-15 06:25:00,
2013-03-15 02:30:00,22.9,11.1,29.85,West,262,3.0,4.0,60,0.00,,CLR,0.00,VWS V14.01,2013-03-15 06:30:00,
2013-03-15 02:35:00,22.9,11.1,29.85,WNW,287,5.0,13.0,60,0.00,,CLR,0.00,VWS V14.01,2013-03-15 06:35:00,
2013-03-15 02:40:00,22.9,11.5,29.85,WNW,297,4.0,8.0,61,0.00,,CLR,0.00,VWS V14.01,2013-03-15 06:40:00,
2013-03-15 02:45:00,22.9,11.5,29.85,NNW,337,5.0,8.0,61,0.00,,CLR,0.00,VWS V14.01,2013-03-15 06:45:00,
2013-03-15 02:50:00,22.9,11.5,29.85,NW,311,4.0,7.0,61,0.00,,CLR,0.00,VWS V14.01,2013-03-15 06:50:00,
2013-03-15 02:55:00,22.9,11.5,29.85,WNW,301,1.0,7.0,61,0.00,,CLR,0.00,VWS V14.01,2013-03-15 06:55:00,
2013-03-15 03:00:00,23.0,11.6,29.85,NNE,13,2.0,7.0,61,0.00,,FEW050,0.00,VWS V14.01,2013-03-15 07:00:00,
2013-03-15 03:05:00,22.9,11.8,29.85,West,267,0.0,8.0,62,0.00,,FEW050,0.00,VWS V14.01,2013-03-15 07:05:00,
2013-03-15 03:10:00,22.9,11.8,29.85,WNW,303,2.0,6.0,62,0.00,,FEW050,0.00,VWS V14.01,2013-03-15 07:10:00,
2013-03-15 03:15:00,22.9,11.8,29.85,NW,321,4.0,9.0,62,0.00,,FEW050,0.00,VWS V14.01,2013-03-15 07:15:00,
2013-03-15 03:20:00,22.7,12.0,29.85,NNW,338,2.0,6.0,63,0.00,,FEW050,0.00,VWS V14.01,2013-03-15 07:20:00,
2013-03-15 03:25:00,22.7,12.0,29.85,NNW,338,2.0,8.0,63,0.00,,FEW050,0.00,VWS V14.01,2013-03-15 07:25:00,
2013-03-15 03:30:00,22.7,12.0,29.85,WNW,295,4.0,6.0,63,0.00,,FEW050,0.00,VWS V14.01,2013-03-15 07:30:00,
2013-03-15 03:35:00,22.7,12.0,29.85,NW,309,4.0,6.0,63,0.00,,FEW050,0.00,VWS V14.01,2013-03-15 07:35:00,
2013-03-15 03:40:00,22.7,12.0,29.85,NW,307,0.0,2.0,63,0.00,,FEW050,0.00,VWS V14.01,2013-03-15 07:40:00,
2013-03-15 03:45:00,22.7,12.4,29.85,NW,305,6.0,7.0,64,0.00,,FEW050,0.00,VWS V14.01,2013-03-15 07:45:00,
2013-03-15 03:50:00,22.7,12.0,29.84,NNW,331,2.0,10.0,63,0.00,,FEW050,0.00,VWS V14.01,2013-03-15 07:50:00,
2013-03-15 03:55:00,22.8,12.1,29.84,WNW,302,5.0,10.0,63,0.00,,FEW050,0.00,VWS V14.01,2013-03-15 07:55:00,
2013-03-15 04:00:00,22.9,12.2,29.84,North,5,2.0,3.0,63,0.00,,OVC048,0.00,VWS V14.01,2013-03-15 08:00:00,
2013-03-15 04:05:00,22.9,12.2,29.84,NNE,15,7.0,13.0,63,0.00,,OVC048,0.00,VWS V14.01,2013-03-15 08:05:00,
2013-03-15 04:10:00,23.0,11.9,29.84,North,5,5.0,6.0,62,0.00,,OVC048,0.00,VWS V14.01,2013-03-15 08:10:00,
2013-03-15 04:15:00,23.1,12.0,29.84,NW,315,2.0,11.0,62,0.00,,OVC048,0.00,VWS V14.01,2013-03-15 08:15:00,
2013-03-15 04:20:00,23.1,11.7,29.84,WNW,282,3.0,5.0,61,0.00,,OVC048,0.00,VWS V14.01,2013-03-15 08:20:00,
2013-03-15 04:25:00,23.1,12.0,29.84,NW,319,4.0,9.0,62,0.00,,OVC048,0.00,VWS V14.01,2013-03-15 08:25:00,
2013-03-15 04:30:00,22.9,11.5,29.84,NW,315,5.0,10.0,61,0.00,,OVC048,0.00,VWS V14.01,2013-03-15 08:30:00,
2013-03-15 04:35:00,22.9,11.8,29.84,NNE,12,2.0,10.0,62,0.00,,OVC048,0.00,VWS V14.01,2013-03-15 08:35:00,
2013-03-15 04:40:00,22.8,11.8,29.84,NE,34,3.0,6.0,62,0.00,,OVC048,0.00,VWS V14.01,2013-03-15 08:40:00,
2013-03-15 04:45:00,22.7,11.6,29.85,NNE,13,2.0,13.0,62,0.00,,OVC048,0.00,VWS V14.01,2013-03-15 08:45:00,
2013-03-15 04:50:00,22.7,11.6,29.85,NW,304,8.0,8.0,62,0.00,,OVC048,0.00,VWS V14.01,2013-03-15 08:50:00,
2013-03-15 04:55:00,22.5,11.5,29.85,NNW,327,6.0,8.0,62,0.00,,OVC048,0.00,VWS V14.01,2013-03-15 08:55:00,
2013-03-15 05:00:00,22.5,11.8,29.85,NW,323,2.0,2.0,63,0.00,,BKN046,0.00,VWS V14.01,2013-03-15 09:00:00,
2013-03-15 05:05:00,22.3,11.6,29.85,NNW,343,2.0,6.0,63,0.00,,BKN046,0.00,VWS V14.01,2013-03-15 09:05:00,
2013-03-15 05:10:00,22.2,11.5,29.85,NNW,348,6.0,7.0,63,0.00,,BKN046,0.00,VWS V14.01,2013-03-15 09:10:00,
2013-03-15 05:15:00,22.1,11.4,29.85,SW,225,1.0,9.0,63,0.00,,BKN046,0.00,VWS V14.01,2013-03-15 09:15:00,
2013-03-15 05:20:00,22.1,11.1,29.86,WNW,289,3.0,5.0,62,0.00,,BKN046,0.00,VWS V14.01,2013-03-15 09:20:00,
2013-03-15 05:25:00,22.0,11.4,29.86,NW,307,3.0,6.0,63,0.00,,BKN046,0.00,VWS V14.01,2013-03-15 09:25:00,
2013-03-15 05:30:00,21.9,11.2,29.86,NNW,338,6.0,9.0,63,0.00,,BKN046,0.00,VWS V14.01,2013-03-15 09:30:00,
2013-03-15 05:35:00,21.9,11.2,29.86,WNW,292,4.0,9.0,63,0.00,,BKN046,0.00,VWS V14.01,2013-03-15 09:35:00,
2013-03-15 05:40:00,21.8,11.2,29.86,NNE,32,4.0,7.0,63,0.00,,BKN046,0.00,VWS V14.01,2013-03-15 09:40:00,
2013-03-15 05:45:00,21.8,11.2,29.86,North,353,3.0,11.0,63,0.00,,BKN046,0.00,VWS V14.01,2013-03-15 09:45:00,
2013-03-15 05:50:00,21.7,11.1,29.86,WNW,303,4.0,6.0,63,0.00,,BKN046,0.00,VWS V14.01,2013-03-15 09:50:00,
2013-03-15 05:55:00,21.6,11.3,29.86,NE,34,4.0,10.0,64,0.00,,BKN046,0.00,VWS V14.01,2013-03-15 09:55:00,
2013-03-15 06:00:00,21.6,11.0,29.87,NW,319,3.0,5.0,63,0.00,,CLR,0.00,VWS V14.01,2013-03-15 10:00:00,
2013-03-15 06:05:00,21.6,11.0,29.87,NW,311,2.0,8.0,63,0.00,,CLR,0.00,VWS V14.01,2013-03-15 10:05:00,
2013-03-15 06:10:00,21.5,11.2,29.87,WNW,301,2.0,3.0,64,0.00,,CLR,0.00,VWS V14.01,2013-03-15 10:10:00,
2013-03-15 06:15:00,21.5,11.2,29.88,NW,325,2.0,7.0,64,0.00,,CLR,0.00,VWS V14.01,2013-03-15 10:15:00,
2013-03-15 06:20:00,21.5,11.2,29.88,NNW,335,3.0,5.0,64,0.00,,CLR,0.00,VWS V14.01,2013-03-15 10:20:00,
2013-03-15 06:25:00,21.4,11.1,29.88,NW,322,8.0,9.0,64,0.00,,CLR,0.00,VWS V14.01,2013-03-15 10:25:00,
2013-03-15 06:30:00,21.5,11.2,29.88,WNW,297,1.0,5.0,64,0.00,,CLR,0.00,VWS V14.01,2013-03-15 10:30:00,
2013-03-15 06:35:00,21.4,11.1,29.88,NW,325,4.0,7.0,64,0.00,,CLR,0.00,VWS V14.01,2013-03-15 10:35:00,
2013-03-15 06:40:00,21.3,11.0,29.88,NW,321,2.0,6.0,64,0.00,,CLR,0.00,VWS V14.01,2013-03-15 10:40:00,
2013-03-15 06:45:00,21.2,10.9,29.88,West,277,4.0,7.0,64,0.00,,CLR,0.00,VWS V14.01,2013-03-15 10:45:00,
2013-03-15 06:50:00,21.2,11.3,29.88,WNW,287,3.0,5.0,65,0.00,,CLR,0.00,VWS V14.01,2013-03-15 10:50:00,
2013-03-15 06:55:00,21.2,11.3,29.89,WNW,288,2.0,8.0,65,0.00,,CLR,0.00,VWS V14.01,2013-03-15 10:55:00,
2013-03-15 07:00:00,21.1,11.2,29.88,NW,319,2.0,2.0,65,0.00,,CLR,0.00,VWS V14.01,2013-03-15 11:00:00,
2013-03-15 07:05:00,21.1,11.2,29.89,NNW,331,1.0,5.0,65,0.00,,CLR,0.00,VWS V14.01,2013-03-15 11:05:00,
2013-03-15 07:10:00,21.1,11.5,29.89,NNW,340,2.0,4.0,66,0.00,,CLR,0.00,VWS V14.01,2013-03-15 11:10:00,
2013-03-15 07:15:00,21.0,11.4,29.89,NW,316,0.0,4.0,66,0.00,,CLR,0.00,VWS V14.01,2013-03-15 11:15:00,
2013-03-15 07:20:00,21.1,11.5,29.89,NW,323,3.0,5.0,66,0.00,,CLR,0.00,VWS V14.01,2013-03-15 11:20:00,
2013-03-15 07:25:00,21.2,11.3,29.89,West,279,0.0,5.0,65,0.00,,CLR,0.00,VWS V14.01,2013-03-15 11:25:00,
2013-03-15 07:30:00,21.3,11.7,29.89,West,276,2.0,3.0,66,0.00,,CLR,0.00,VWS V14.01,2013-03-15 11:30:00,
2013-03-15 07:35:00,21.4,11.5,29.89,West,263,2.0,6.0,65,0.00,,CLR,0.00,VWS V14.01,2013-03-15 11:35:00,
2013-03-15 07:40:00,21.6,11.7,29.89,WSW,252,0.0,0.0,65,0.00,,CLR,0.00,VWS V14.01,2013-03-15 11:40:00,
2013-03-15 07:45:00,21.7,11.8,29.89,NNW,327,1.0,4.0,65,0.00,,CLR,0.00,VWS V14.01,2013-03-15 11:45:00,
2013-03-15 07:50:00,21.9,11.6,29.89,WNW,290,0.0,0.0,64,0.00,,CLR,0.00,VWS V14.01,2013-03-15 11:50:00,
2013-03-15 07:55:00,22.1,11.4,29.89,WNW,291,3.0,7.0,63,0.00,,CLR,0.00,VWS V14.01,2013-03-15 11:55:00,
2013-03-15 08:00:00,22.3,11.3,29.89,NNW,330,2.0,5.0,62,0.00,,CLR,0.00,VWS V14.01,2013-03-15 12:00:00,
2013-03-15 08:05:00,22.7,11.6,29.89,West,272,3.0,7.0,62,0.00,,CLR,0.00,VWS V14.01,2013-03-15 12:05:00,
2013-03-15 08:10:00,22.8,11.0,29.88,NW,316,5.0,7.0,60,0.00,,CLR,0.00,VWS V14.01,2013-03-15 12:10:00,
2013-03-15 08:15:00,23.0,10.8,29.89,West,281,3.0,8.0,59,0.00,,CLR,0.00,VWS V14.01,2013-03-15 12:15:00,
2013-03-15 08:20:00,23.2,11.0,29.89,West,271,3.0,7.0,59,0.00,,CLR,0.00,VWS V14.01,2013-03-15 12:20:00,
2013-03-15 08:25:00,23.2,10.6,29.89,WNW,302,7.0,11.0,58,0.00,,CLR,0.00,VWS V14.01,2013-03-15 12:25:00,
2013-03-15 08:30:00,23.3,10.7,29.89,NW,325,5.0,9.0,58,0.00,,CLR,0.00,VWS V14.01,2013-03-15 12:30:00,
2013-03-15 08:35:00,23.6,10.6,29.89,North,6,5.0,10.0,57,0.00,,CLR,0.00,VWS V14.01,2013-03-15 12:35:00,
2013-03-15 08:40:00,23.9,10.9,29.89,WNW,296,4.0,6.0,57,0.00,,CLR,0.00,VWS V14.01,2013-03-15 12:40:00,
2013-03-15 08:45:00,24.2,11.2,29.89,WNW,294,3.0,9.0,57,0.00,,CLR,0.00,VWS V14.01,2013-03-15 12:45:00,
2013-03-15 08:50:00,24.5,11.1,29.89,WNW,297,6.0,7.0,56,0.00,,CLR,0.00,VWS V14.01,2013-03-15 12:50:00,
2013-03-15 08:55:00,24.8,10.9,29.89,West,269,2.0,9.0,55,0.00,,CLR,0.00,VWS V14.01,2013-03-15 12:55:00,
2013-03-15 09:00:00,25.1,10.8,29.89,West,276,9.0,9.0,54,0.00,,CLR,0.00,VWS V14.01,2013-03-15 13:00:00,
2013-03-15 09:05:00,25.0,10.7,29.89,WNW,285,5.0,14.0,54,0.00,,CLR,0.00,VWS V14.01,2013-03-15 13:05:00,
2013-03-15 09:10:00,25.1,10.4,29.89,NW,307,6.0,6.0,53,0.00,,CLR,0.00,VWS V14.01,2013-03-15 13:10:00,
2013-03-15 09:15:00,25.3,11.0,29.89,NNW,338,8.0,12.0,54,0.00,,CLR,0.00,VWS V14.01,2013-03-15 13:15:00,
2013-03-15 09:20:00,25.6,10.9,29.89,NW,304,6.0,6.0,53,0.00,,CLR,0.00,VWS V14.01,2013-03-15 13:20:00,
2013-03-15 09:25:00,25.9,11.1,29.89,NW,314,7.0,9.0,53,0.00,,CLR,0.00,VWS V14.01,2013-03-15 13:25:00,
2013-03-15 09:30:00,26.1,10.9,29.89,NW,315,6.0,10.0,52,0.00,,CLR,0.00,VWS V14.01,2013-03-15 13:30:00,
2013-03-15 09:35:00,26.5,10.8,29.89,SW,233,5.0,10.0,51,0.00,,CLR,0.00,VWS V14.01,2013-03-15 13:35:00,
2013-03-15 09:40:00,26.3,10.2,29.89,WNW,283,7.0,7.0,50,0.00,,CLR,0.00,VWS V14.01,2013-03-15 13:40:00,
2013-03-15 09:45:00,26.4,10.3,29.88,NW,319,7.0,15.0,50,0.00,,CLR,0.00,VWS V14.01,2013-03-15 13:45:00,
2013-03-15 09:50:00,26.7,10.6,29.88,West,261,3.0,6.0,50,0.00,,CLR,0.00,VWS V14.01,2013-03-15 13:50:00,
2013-03-15 09:55:00,26.7,10.6,29.88,WSW,250,11.0,13.0,50,0.00,,CLR,0.00,VWS V14.01,2013-03-15 13:55:00,
2013-03-15 10:00:00,26.8,10.2,29.88,NNW,346,4.0,13.0,49,0.00,,CLR,0.00,VWS V14.01,2013-03-15 14:00:00,
2013-03-15 10:05:00,27.3,10.2,29.88,WNW,296,6.0,14.0,48,0.00,,CLR,0.00,VWS V14.01,2013-03-15 14:05:00,
2013-03-15 10:10:00,27.4,9.4,29.88,WNW,296,3.0,12.0,46,0.00,,CLR,0.00,VWS V14.01,2013-03-15 14:10:00,
2013-03-15 10:15:00,27.4,9.8,29.88,WNW,295,10.0,13.0,47,0.00,,CLR,0.00,VWS V14.01,2013-03-15 14:15:00,
2013-03-15 10:20:00,27.8,9.7,29.88,WNW,285,9.0,14.0,46,0.00,,CLR,0.00,VWS V14.01,2013-03-15 14:20:00,
2013-03-15 10:25:00,28.1,10.5,29.87,WNW,294,6.0,14.0,47,0.00,,CLR,0.00,VWS V14.01,2013-03-15 14:25:00,
2013-03-15 10:30:00,28.6,10.5,29.87,WNW,284,2.0,9.0,46,0.00,,CLR,0.00,VWS V14.01,2013-03-15 14:30:00,
2013-03-15 10:35:00,29.1,10.4,29.87,WNW,291,0.0,9.0,45,0.00,,CLR,0.00,VWS V14.01,2013-03-15 14:35:00,
2013-03-15 10:40:00,28.9,10.2,29.87,NW,326,2.0,5.0,45,0.00,,CLR,0.00,VWS V14.01,2013-03-15 14:40:00,
2013-03-15 10:45:00,29.1,10.4,29.86,North,9,4.0,11.0,45,0.00,,CLR,0.00,VWS V14.01,2013-03-15 14:45:00,
2013-03-15 10:50:00,29.1,10.4,29.86,WNW,297,11.0,17.0,45,0.00,,CLR,0.00,VWS V14.01,2013-03-15 14:50:00,
2013-03-15 10:55:00,29.4,10.2,29.87,NW,319,5.0,17.0,44,0.00,,CLR,0.00,VWS V14.01,2013-03-15 14:55:00,
2013-03-15 11:00:00,30.1,10.8,29.87,NW,304,6.0,13.0,44,0.00,,CLR,0.00,VWS V14.01,2013-03-15 15:00:00,
2013-03-15 11:05:00,30.2,9.9,29.86,WNW,300,6.0,13.0,42,0.00,,CLR,0.00,VWS V14.01,2013-03-15 15:05:00,
2013-03-15 11:10:00,30.0,9.2,29.86,WNW,297,7.0,7.0,41,0.00,,CLR,0.00,VWS V14.01,2013-03-15 15:10:00,
2013-03-15 11:15:00,30.2,9.9,29.86,NNW,333,3.0,14.0,42,0.00,,CLR,0.00,VWS V14.01,2013-03-15 15:15:00,
2013-03-15 11:20:00,30.5,9.6,29.86,WSW,257,4.0,11.0,41,0.00,,CLR,0.00,VWS V14.01,2013-03-15 15:20:00,
2013-03-15 11:25:00,30.4,10.1,29.85,WSW,250,5.0,11.0,42,0.00,,CLR,0.00,VWS V14.01,2013-03-15 15:25:00,
2013-03-15 11:30:00,31.0,9.5,29.85,NW,309,5.0,8.0,40,0.00,,CLR,0.00,VWS V14.01,2013-03-15 15:30:00,
2013-03-15 11:35:00,31.6,9.5,29.85,West,270,7.0,13.0,39,0.00,,CLR,0.00,VWS V14.01,2013-03-15 15:35:00,
2013-03-15 11:40:00,31.7,8.4,29.85,WNW,300,11.0,12.0,37,0.00,,CLR,0.00,VWS V14.01,2013-03-15 15:40:00,
2013-03-15 11:45:00,31.9,8.6,29.85,WNW,285,3.0,17.0,37,0.00,,CLR,0.00,VWS V14.01,2013-03-15 15:45:00,
2013-03-15 11:50:00,32.4,7.8,29.84,NW,306,7.0,8.0,35,0.00,,CLR,0.00,VWS V14.01,2013-03-15 15:50:00,
2013-03-15 11:55:00,32.6,8.6,29.84,WNW,288,8.0,12.0,36,0.00,,CLR,0.00,VWS V14.01,2013-03-15 15:55:00,
2013-03-15 12:00:00,32.5,7.9,29.84,WNW,294,6.0,11.0,35,0.00,,CLR,0.00,VWS V14.01,2013-03-15 16:00:00,
2013-03-15 12:05:00,32.9,8.9,29.84,SW,228,8.0,15.0,36,0.00,,FEW120,0.00,VWS V14.01,2013-03-15 16:05:00,
2013-03-15 12:10:00,33.4,9.9,29.83,WSW,257,9.0,10.0,37,0.00,,FEW120,0.00,VWS V14.01,2013-03-15 16:10:00,
2013-03-15 12:15:00,33.2,8.5,29.83,West,267,4.0,13.0,35,0.00,,FEW120,0.00,VWS V14.01,2013-03-15 16:15:00,
2013-03-15 12:20:00,32.7,9.3,29.83,SW,235,12.0,12.0,37,0.00,,FEW120,0.00,VWS V14.01,2013-03-15 16:20:00,
2013-03-15 12:25:00,32.6,9.2,29.83,WNW,300,5.0,13.0,37,0.00,,FEW120,0.00,VWS V14.01,2013-03-15 16:25:00,
2013-03-15 12:30:00,33.1,10.9,29.83,WNW,283,4.0,10.0,39,0.00,,FEW120,0.00,VWS V14.01,2013-03-15 16:30:00,
2013-03-15 12:35:00,33.3,9.2,29.82,West,267,5.0,14.0,36,0.00,,FEW120,0.00,VWS V14.01,2013-03-15 16:35:00,
2013-03-15 12:40:00,33.5,8.8,29.82,West,280,6.0,6.0,35,0.00,,FEW120,0.00,VWS V14.01,2013-03-15 16:40:00,
2013-03-15 12:45:00,33.9,8.5,29.82,West,278,7.0,11.0,34,0.00,,FEW120,0.00,VWS V14.01,2013-03-15 16:45:00,
2013-03-15 12:50:00,33.9,7.8,29.81,WSW,250,5.0,10.0,33,0.00,,FEW120,0.00,VWS V14.01,2013-03-15 16:50:00,
2013-03-15 12:55:00,34.5,8.4,29.81,WNW,290,7.0,15.0,33,0.00,,FEW120,0.00,VWS V14.01,2013-03-15 16:55:00,
2013-03-15 13:00:00,34.7,8.6,29.81,WSW,253,10.0,10.0,33,0.00,,FEW120,0.00,VWS V14.01,2013-03-15 17:00:00,
2013-03-15 13:05:00,34.9,8.7,29.81,SW,224,2.0,14.0,33,0.00,,BKN100,0.00,VWS V14.01,2013-03-15 17:05:00,
2013-03-15 13:10:00,34.9,9.4,29.80,WSW,250,10.0,11.0,34,0.00,,BKN100,0.00,VWS V14.01,2013-03-15 17:10:00,
2013-03-15 13:15:00,34.9,7.3,29.80,SW,233,6.0,18.0,31,0.00,,BKN100,0.00,VWS V14.01,2013-03-15 17:15:00,
2013-03-15 13:20:00,35.0,8.1,29.80,SSW,205,5.0,6.0,32,0.00,,BKN100,0.00,VWS V14.01,2013-03-15 17:20:00,
2013-03-15 13:25:00,35.1,8.2,29.79,West,259,5.0,12.0,32,0.00,,BKN100,0.00,VWS V14.01,2013-03-15 17:25:00,
2013-03-15 13:30:00,35.4,9.2,29.79,West,267,4.0,4.0,33,0.00,,BKN100,0.00,VWS V14.01,2013-03-15 17:30:00,
2013-03-15 13:35:00,36.0,7.6,29.79,WNW,298,11.0,12.0,30,0.00,,BKN100,0.00,VWS V14.01,2013-03-15 17:35:00,
2013-03-15 13:40:00,35.9,6.0,29.78,NW,311,7.0,8.0,28,0.00,,BKN100,0.00,VWS V14.01,2013-03-15 17:40:00,
2013-03-15 13:45:00,36.5,8.0,29.78,WNW,292,4.0,12.0,30,0.00,,BKN100,0.00,VWS V14.01,2013-03-15 17:45:00,
2013-03-15 13:50:00,36.8,7.5,29.77,WSW,248,11.0,12.0,29,0.00,,BKN100,0.00,VWS V14.01,2013-03-15 17:50:00,
2013-03-15 13:55:00,36.7,7.4,29.77,West,280,13.0,14.0,29,0.00,,BKN100,0.00,VWS V14.01,2013-03-15 17:55:00,
2013-03-15 14:00:00,37.3,8.0,29.76,WSW,250,6.0,8.0,29,0.00,,BKN100,0.00,VWS V14.01,2013-03-15 18:00:00,
2013-03-15 14:05:00,37.5,7.4,29.76,WSW,253,1.0,11.0,28,0.00,,SCT100,0.00,VWS V14.01,2013-03-15 18:05:00,
2013-03-15 14:10:00,37.9,7.7,29.76,WSW,249,8.0,12.0,28,0.00,,SCT100,0.00,VWS V14.01,2013-03-15 18:10:00,
2013-03-15 14:15:00,37.6,7.5,29.75,West,269,9.0,14.0,28,0.00,,SCT100,0.00,VWS V14.01,2013-03-15 18:15:00,
2013-03-15 14:20:00,38.1,7.1,29.75,NW,319,5.0,5.0,27,0.00,,SCT100,0.00,VWS V14.01,2013-03-15 18:20:00,
2013-03-15 14:25:00,38.9,7.8,29.75,West,269,11.0,14.0,27,0.00,,SCT100,0.00,VWS V14.01,2013-03-15 18:25:00,
2013-03-15 14:30:00,38.4,6.5,29.75,WSW,256,7.0,11.0,26,0.00,,SCT100,0.00,VWS V14.01,2013-03-15 18:30:00,
2013-03-15 14:35:00,38.6,6.7,29.74,West,279,5.0,14.0,26,0.00,,SCT100,0.00,VWS V14.01,2013-03-15 18:35:00,
2013-03-15 14:40:00,38.5,7.4,29.74,NW,316,3.0,6.0,27,0.00,,SCT100,0.00,VWS V14.01,2013-03-15 18:40:00,
2013-03-15 14:45:00,38.9,8.6,29.73,WNW,297,7.0,12.0,28,0.00,,SCT100,0.00,VWS V14.01,2013-03-15 18:45:00,
2013-03-15 14:50:00,39.1,9.5,29.73,West,266,6.0,7.0,29,0.00,,SCT100,0.00,VWS V14.01,2013-03-15 18:50:00,
2013-03-15 14:55:00,38.9,9.4,29.73,West,281,8.0,10.0,29,0.00,,SCT100,0.00,VWS V14.01,2013-03-15 18:55:00,
2013-03-15 15:00:00,39.2,10.4,29.72,West,273,9.0,9.0,30,0.00,,SCT100,0.00,VWS V14.01,2013-03-15 19:00:00,
2013-03-15 15:05:00,39.1,18.0,29.72,SSW,210,6.0,12.0,42,0.00,,BKN080,0.00,VWS V14.01,2013-03-15 19:05:00,
2013-03-15 15:10:00,39.1,17.4,29.72,SSW,207,0.0,2.0,41,0.00,,BKN080,0.00,VWS V14.01,2013-03-15 19:10:00,
2013-03-15 15:15:00,39.3,18.7,29.72,WSW,243,5.0,12.0,43,0.00,,BKN080,0.00,VWS V14.01,2013-03-15 19:15:00,
2013-03-15 15:20:00,38.9,20.9,29.72,WSW,250,5.0,6.0,48,0.00,,BKN080,0.00,VWS V14.01,2013-03-15 19:20:00,
2013-03-15 15:25:00,38.9,19.4,29.72,SSW,195,5.0,14.0,45,0.00,,BKN080,0.00,VWS V14.01,2013-03-15 19:25:00,
2013-03-15 15:30:00,38.2,19.3,29.72,West,271,4.0,7.0,46,0.00,,BKN080,0.00,VWS V14.01,2013-03-15 19:30:00,
2013-03-15 15:35:00,38.3,19.9,29.71,WNW,291,3.0,11.0,47,0.00,,BKN080,0.00,VWS V14.01,2013-03-15 19:35:00,
2013-03-15 15:40:00,38.2,20.2,29.71,WSW,250,6.0,6.0,48,0.00,,BKN080,0.00,VWS V14.01,2013-03-15 19:40:00,
2013-03-15 15:45:00,37.8,20.4,29.71,South,173,9.0,13.0,49,0.00,,BKN080,0.00,VWS V14.01,2013-03-15 19:45:00,
2013-03-15 15:50:00,37.2,20.8,29.71,WSW,255,4.0,10.0,51,0.00,,BKN080,0.00,VWS V14.01,2013-03-15 19:50:00,
2013-03-15 15:55:00,36.6,20.6,29.71,SW,215,6.0,13.0,52,0.00,,BKN080,0.00,VWS V14.01,2013-03-15 19:55:00,
2013-03-15 16:00:00,36.2,19.8,29.71,SSW,196,7.0,11.0,51,0.00,,BKN080,0.00,VWS V14.01,2013-03-15 20:00:00,
2013-03-15 16:05:00,36.6,19.7,29.71,WNW,292,7.0,14.0,50,0.00,,SCT070,0.00,VWS V14.01,2013-03-15 20:05:00,
2013-03-15 16:10:00,37.3,17.9,29.71,SSW,201,7.0,12.0,45,0.00,,SCT070,0.00,VWS V14.01,2013-03-15 20:10:00,
2013-03-15 16:15:00,37.9,17.4,29.70,WSW,256,6.0,18.0,43,0.00,,SCT070,0.00,VWS V14.01,2013-03-15 20:15:00,
2013-03-15 16:20:00,38.3,16.7,29.70,West,264,8.0,8.0,41,0.00,,SCT070,0.00,VWS V14.01,2013-03-15 20:20:00,
2013-03-15 16:25:00,38.3,16.1,29.70,WNW,285,4.0,17.0,40,0.00,,SCT070,0.00,VWS V14.01,2013-03-15 20:25:00,
2013-03-15 16:30:00,38.8,16.6,29.70,SW,236,10.0,12.0,40,0.00,,SCT070,0.00,VWS V14.01,2013-03-15 20:30:00,
2013-03-15 16:35:00,39.0,17.9,29.70,WNW,286,9.0,13.0,42,0.00,,SCT070,0.00,VWS V14.01,2013-03-15 20:35:00,
2013-03-15 16:40:00,39.1,17.4,29.69,South,181,3.0,6.0,41,0.00,,SCT070,0.00,VWS V14.01,2013-03-15 20:40:00,
2013-03-15 16:45:00,39.7,17.4,29.69,WSW,252,7.0,12.0,40,0.00,,SCT070,0.00,VWS V14.01,2013-03-15 20:45:00,
2013-03-15 16:50:00,40.0,17.6,29.69,West,266,9.0,9.0,40,0.00,,SCT070,0.00,VWS V14.01,2013-03-15 20:50:00,
2013-03-15 16:55:00,40.0,17.6,29.68,SW,224,3.0,18.0,40,0.00,,SCT070,0.00,VWS V14.01,2013-03-15 20:55:00,
2013-03-15 17:00:00,40.0,18.2,29.68,West,281,3.0,5.0,41,0.00,,SCT070,0.00,VWS V14.01,2013-03-15 21:00:00,
2013-03-15 17:05:00,40.1,18.9,29.68,West,262,7.0,17.0,42,0.00,,CLR,0.00,VWS V14.01,2013-03-15 21:05:00,
2013-03-15 17:10:00,40.0,18.8,29.68,SW,236,10.0,10.0,42,0.00,,CLR,0.00,VWS V14.01,2013-03-15 21:10:00,
2013-03-15 17:15:00,39.9,20.3,29.68,West,278,3.0,15.0,45,0.00,,CLR,0.00,VWS V14.01,2013-03-15 21:15:00,
2013-03-15 17:20:00,39.9,20.3,29.68,West,270,6.0,10.0,45,0.00,,CLR,0.00,VWS V14.01,2013-03-15 21:20:00,
2013-03-15 17:25:00,39.9,20.8,29.68,SSW,212,10.0,11.0,46,0.00,,CLR,0.00,VWS V14.01,2013-03-15 21:25:00,
2013-03-15 17:30:00,40.0,21.4,29.68,WSW,256,6.0,13.0,47,0.00,,CLR,0.00,VWS V14.01,2013-03-15 21:30:00,
2013-03-15 17:35:00,39.8,21.2,29.68,WSW,255,7.0,19.0,47,0.00,,CLR,0.00,VWS V14.01,2013-03-15 21:35:00,
2013-03-15 17:40:00,39.5,21.9,29.68,SSW,208,8.0,8.0,49,0.00,,CLR,0.00,VWS V14.01,2013-03-15 21:40:00,
2013-03-15 17:45:00,39.3,22.2,29.68,SW,224,4.0,13.0,50,0.00,,CLR,0.00,VWS V14.01,2013-03-15 21:45:00,
2013-03-15 17:50:00,38.7,22.1,29.68,WSW,251,6.0,11.0,51,0.00,,CLR,0.00,VWS V14.01,2013-03-15 21:50:00,
2013-03-15 17:55:00,38.6,23.0,29.68,WSW,243,7.0,16.0,53,0.00,,CLR,0.00,VWS V14.01,2013-03-15 21:55:00,
2013-03-15 18:00:00,38.3,23.1,29.68,West,263,8.0,9.0,54,0.00,,CLR,0.00,VWS V14.01,2013-03-15 22:00:00,
2013-03-15 18:05:00,38.1,23.4,29.68,WSW,257,5.0,15.0,55,0.00,,BKN060,0.00,VWS V14.01,2013-03-15 22:05:00,
2013-03-15 18:10:00,38.1,23.4,29.68,WSW,246,5.0,10.0,55,0.00,,BKN060,0.00,VWS V14.01,2013-03-15 22:10:00,
2013-03-15 18:15:00,38.2,23.5,29.68,WNW,290,1.0,14.0,55,0.00,,BKN060,0.00,VWS V14.01,2013-03-15 22:15:00,
2013-03-15 18:20:00,37.9,23.2,29.68,West,269,3.0,10.0,55,0.00,,BKN060,0.00,VWS V14.01,2013-03-15 22:20:00,
2013-03-15 18:25:00,38.0,23.3,29.68,WSW,256,7.0,19.0,55,0.00,,BKN060,0.00,VWS V14.01,2013-03-15 22:25:00,
2013-03-15 18:30:00,38.2,23.5,29.68,WSW,246,8.0,8.0,55,0.00,,BKN060,0.00,VWS V14.01,2013-03-15 22:30:00,
2013-03-15 18:35:00,38.2,23.5,29.68,WSW,255,8.0,18.0,55,0.00,,BKN060,0.00,VWS V14.01,2013-03-15 22:35:00,
2013-03-15 18:40:00,38.0,23.7,29.68,South,177,3.0,7.0,56,0.00,,BKN060,0.00,VWS V14.01,2013-03-15 22:40:00,
2013-03-15 18:45:00,37.9,24.0,29.68,West,278,1.0,14.0,57,0.00,,BKN060,0.00,VWS V14.01,2013-03-15 22:45:00,
2013-03-15 18:50:00,37.7,24.7,29.69,West,263,11.0,11.0,59,0.00,,BKN060,0.00,VWS V14.01,2013-03-15 22:50:00,
2013-03-15 18:55:00,37.6,25.0,29.69,South,187,6.0,17.0,60,0.00,,BKN060,0.00,VWS V14.01,2013-03-15 22:55:00,
2013-03-15 19:00:00,37.4,25.2,29.69,West,270,6.0,6.0,61,0.00,,BKN060,0.00,VWS V14.01,2013-03-15 23:00:00,
2013-03-15 19:05:00,37.3,25.5,29.69,WSW,248,8.0,13.0,62,0.00,,CLR,0.00,VWS V14.01,2013-03-15 23:05:00,
2013-03-15 19:10:00,37.1,25.7,29.69,SSW,192,11.0,13.0,63,0.00,,CLR,0.00,VWS V14.01,2013-03-15 23:10:00,
2013-03-15 19:15:00,37.1,25.7,29.69,WSW,257,7.0,13.0,63,0.00,,CLR,0.00,VWS V14.01,2013-03-15 23:15:00,
2013-03-15 19:20:00,37.0,26.0,29.69,SW,222,6.0,6.0,64,0.00,,CLR,0.00,VWS V14.01,2013-03-15 23:20:00,
2013-03-15 19:25:00,36.9,25.9,29.69,SW,235,4.0,10.0,64,0.00,,CLR,0.00,VWS V14.01,2013-03-15 23:25:00,
2013-03-15 19:30:00,36.8,25.8,29.69,WNW,285,2.0,2.0,64,0.00,,CLR,0.00,VWS V14.01,2013-03-15 23:30:00,
2013-03-15 19:35:00,36.6,26.0,29.70,West,260,7.0,8.0,65,0.00,,CLR,0.00,VWS V14.01,2013-03-15 23:35:00,
2013-03-15 19:40:00,36.5,25.9,29.69,SW,218,6.0,8.0,65,0.00,,CLR,0.00,VWS V14.01,2013-03-15 23:40:00,
2013-03-15 19:45:00,36.5,25.9,29.69,West,266,2.0,9.0,65,0.00,,CLR,0.00,VWS V14.01,2013-03-15 23:45:00,
2013-03-15 19:50:00,36.6,26.3,29.69,SW,233,5.0,5.0,66,0.00,,CLR,0.00,VWS V14.01,2013-03-15 23:50:00,
2013-03-15 19:55:00,36.6,26.3,29.69,WSW,239,6.0,12.0,66,0.00,,CLR,0.00,VWS V14.01,2013-03-15 23:55:00,
2013-03-15 20:00:00,36.6,26.3,29.70,West,266,7.0,11.0,66,0.00,,CLR,0.00,VWS V14.01,2013-03-16 00:00:00,
2013-03-15 20:05:00,36.7,26.4,29.70,West,264,5.0,11.0,66,0.00,,SCT070,0.00,VWS V14.01,2013-03-16 00:05:00,
2013-03-15 20:10:00,36.8,26.5,29.70,West,259,4.0,5.0,66,0.00,,SCT070,0.00,VWS V14.01,2013-03-16 00:10:00,
2013-03-15 20:15:00,36.9,26.6,29.70,WSW,250,4.0,10.0,66,0.00,,SCT070,0.00,VWS V14.01,2013-03-16 00:15:00,
2013-03-15 20:20:00,36.9,26.6,29.70,West,265,4.0,5.0,66,0.00,,SCT070,0.00,VWS V14.01,2013-03-16 00:20:00,
2013-03-15 20:24:00,36.8,26.5,29.69,West,262,6.0,6.0,66,0.00,,SCT070,0.00,VWS V14.01,2013-03-16 00:24:00,
2013-03-15 20:29:00,36.8,26.5,29.69,West,275,4.0,4.0,66,0.00,,SCT070,0.00,VWS V14.01,2013-03-16 00:29:00,
2013-03-15 20:30:00,36.7,26.4,29.69,West,280,3.0,8.0,66,0.00,,RA,0.00,VWS V14.01,2013-03-16 00:30:00,
2013-03-15 20:34:00,36.8,26.5,29.69,West,274,5.0,8.0,66,0.00,,SCT070,0.00,VWS V14.01,2013-03-16 00:34:00,
2013-03-15 20:39:00,36.7,26.8,29.70,WSW,250,2.0,3.0,67,0.00,,SCT070,0.00,VWS V14.01,2013-03-16 00:39:00,
2013-03-15 20:40:00,36.7,26.8,29.70,SW,235,3.0,8.0,67,0.00,,RA,0.00,VWS V14.01,2013-03-16 00:40:00,
2013-03-15 20:44:00,36.7,26.8,29.70,WSW,253,4.0,5.0,67,0.00,,SCT070,0.00,VWS V14.01,2013-03-16 00:44:00,
2013-03-15 20:49:00,36.7,26.8,29.70,West,266,6.0,6.0,67,0.00,,SCT070,0.00,VWS V14.01,2013-03-16 00:49:00,
2013-03-15 20:50:00,36.7,26.8,29.70,WNW,286,5.0,6.0,67,0.00,,RA,0.00,VWS V14.01,2013-03-16 00:50:00,
2013-03-15 20:55:00,36.7,26.8,29.70,SW,229,3.0,8.0,67,0.00,,SCT070,0.00,VWS V14.01,2013-03-16 00:55:00,
2013-03-15 21:00:00,36.8,26.9,29.70,West,259,2.0,3.0,67,0.00,,SCT070,0.00,VWS V14.01,2013-03-16 01:00:00,
2013-03-15 21:05:00,36.8,26.9,29.70,West,274,5.0,6.0,67,0.00,,SCT043,0.00,VWS V14.01,2013-03-16 01:05:00,
2013-03-15 21:10:00,36.9,27.0,29.70,West,260,3.0,5.0,67,0.00,,SCT043,0.00,VWS V14.01,2013-03-16 01:10:00,
2013-03-15 21:15:00,36.9,27.0,29.70,WSW,245,6.0,10.0,67,0.00,,SCT043,0.00,VWS V14.01,2013-03-16 01:15:00,
2013-03-15 21:20:00,36.9,27.0,29.70,West,273,3.0,8.0,67,0.00,,SCT043,0.00,VWS V14.01,2013-03-16 01:20:00,
2013-03-15 21:25:00,36.9,27.0,29.70,West,278,5.0,8.0,67,0.00,,SCT043,0.00,VWS V14.01,2013-03-16 01:25:00,
2013-03-15 21:30:00,36.8,27.2,29.70,West,260,4.0,10.0,68,0.00,,SCT043,0.00,VWS V14.01,2013-03-16 01:30:00,
2013-03-15 21:35:00,36.9,27.3,29.70,WNW,295,4.0,11.0,68,0.00,,SCT043,0.00,VWS V14.01,2013-03-16 01:35:00,
2013-03-15 21:40:00,36.9,27.3,29.70,West,263,4.0,5.0,68,0.00,,SCT043,0.00,VWS V14.01,2013-03-16 01:40:00,
2013-03-15 21:45:00,36.8,27.2,29.70,West,271,7.0,10.0,68,0.00,,SCT043,0.00,VWS V14.01,2013-03-16 01:45:00,
2013-03-15 21:50:00,36.7,27.1,29.70,West,269,4.0,5.0,68,0.00,,SCT043,0.00,VWS V14.01,2013-03-16 01:50:00,
2013-03-15 21:55:00,36.7,27.5,29.70,West,271,3.0,10.0,69,0.00,,SCT043,0.00,VWS V14.01,2013-03-16 01:55:00,
2013-03-15 22:00:00,36.5,27.3,29.70,WSW,246,1.0,1.0,69,0.00,,SCT043,0.00,VWS V14.01,2013-03-16 02:00:00,
2013-03-15 22:05:00,36.5,27.7,29.70,WSW,240,6.0,10.0,70,0.00,,FEW070,0.00,VWS V14.01,2013-03-16 02:05:00,
2013-03-15 22:10:00,36.4,27.6,29.70,West,259,6.0,7.0,70,0.00,,FEW070,0.00,VWS V14.01,2013-03-16 02:10:00,
2013-03-15 22:15:00,36.4,27.6,29.70,WNW,302,2.0,10.0,70,0.00,,FEW070,0.00,VWS V14.01,2013-03-16 02:15:00,
2013-03-15 22:20:00,36.4,27.6,29.70,WSW,256,5.0,5.0,70,0.00,,FEW070,0.00,VWS V14.01,2013-03-16 02:20:00,
2013-03-15 22:25:00,36.4,27.9,29.70,West,278,4.0,9.0,71,0.00,,FEW070,0.00,VWS V14.01,2013-03-16 02:25:00,
2013-03-15 22:30:00,36.3,27.8,29.70,WSW,243,7.0,7.0,71,0.00,,FEW070,0.00,VWS V14.01,2013-03-16 02:30:00,
2013-03-15 22:35:00,36.2,27.7,29.70,West,281,6.0,9.0,71,0.00,,FEW070,0.00,VWS V14.01,2013-03-16 02:35:00,
2013-03-15 22:40:00,36.2,28.1,29.70,West,264,1.0,6.0,72,0.00,,FEW070,0.00,VWS V14.01,2013-03-16 02:40:00,
2013-03-15 22:45:00,36.1,28.0,29.69,WSW,257,3.0,7.0,72,0.00,,FEW070,0.00,VWS V14.01,2013-03-16 02:45:00,
2013-03-15 22:50:00,36.1,28.3,29.69,West,273,3.0,3.0,73,0.00,,FEW070,0.00,VWS V14.01,2013-03-16 02:50:00,
2013-03-15 22:55:00,36.1,28.3,29.69,West,266,3.0,12.0,73,0.00,,FEW070,0.00,VWS V14.01,2013-03-16 02:55:00,
2013-03-15 23:00:00,36.2,28.4,29.69,West,280,3.0,6.0,73,0.00,,FEW070,0.00,VWS V14.01,2013-03-16 03:00:00,
2013-03-15 23:05:00,36.1,28.3,29.69,NW,305,8.0,11.0,73,0.00,,CLR,0.00,VWS V14.01,2013-03-16 03:05:00,
2013-03-15 23:10:00,36.2,28.4,29.69,West,266,4.0,5.0,73,0.00,,CLR,0.00,VWS V14.01,2013-03-16 03:10:00,
2013-03-15 23:15:00,36.3,28.5,29.69,NW,311,3.0,12.0,73,0.00,,CLR,0.00,VWS V14.01,2013-03-16 03:15:00,
2013-03-15 23:20:00,36.4,28.6,29.69,WNW,293,5.0,7.0,73,0.00,,CLR,0.00,VWS V14.01,2013-03-16 03:20:00,
2013-03-15 23:25:00,36.4,28.2,29.69,West,269,4.0,11.0,72,0.00,,CLR,0.00,VWS V14.01,2013-03-16 03:25:00,
2013-03-15 23:30:00,36.5,28.4,29.69,WNW,290,7.0,7.0,72,0.00,,CLR,0.00,VWS V14.01,2013-03-16 03:30:00,
2013-03-15 23:35:00,36.5,28.4,29.69,WNW,291,8.0,10.0,72,0.00,,CLR,0.00,VWS V14.01,2013-03-16 03:35:00,
2013-03-15 23:40:00,36.5,28.4,29.69,WNW,282,5.0,7.0,72,0.00,,CLR,0.00,VWS V14.01,2013-03-16 03:40:00,
2013-03-15 23:45:00,36.4,28.2,29.69,WNW,295,6.0,11.0,72,0.00,,CLR,0.00,VWS V14.01,2013-03-16 03:45:00,
2013-03-15 23:50:00,36.4,28.2,29.69,WSW,239,2.0,6.0,72,0.00,,CLR,0.00,VWS V14.01,2013-03-16 03:50:00,
2013-03-15 23:55:00,36.5,28.4,29.70,WSW,253,9.0,12.0,72,0.00,,CLR,0.00,VWS V14.01,2013-03-16 03:55:00,